Location: Unspecified
(0.0000°N, 0.0000°E)
Time: 02:54:23
(UTC+00:00)

SPEKTR R - Pass Details

Date: 05 February 2022
Orbit: 10803 x 352326 km, 33.0° (Epoch: 22 May)

Event Time Altitude Azimuth Distance (km) Brightness Sun altitude
Rises 17:52:18 0° 93° (E) 300,281 13.5 5.2°
Reaches altitude 10° 18:33:00 10° 93° (E) 297,636 13.4 -4.6°
Maximum altitude 23:51:49 86° 179° (S) 279,594 13.3 -73.4°
Drops below altitude 10° 05:10:53 10° 265° (W) 270,324 13.2 -15.2°
Sets 05:51:43 0° 265° (W) 269,463 13.2 -5.4°
